Погода в Сейдикемере

Турция     36°38′43″N   29°30′55″E
темп.,
°C
ветер,
м/с
пор.,
м/с
влажн.,
%
обл.,
%
осадки,
мм/ч
давл.,
гПа
погр.,
м
13 апреля, вт
вт1300:00+4св22670 0.0 102012
03:00+2з01750 0.0 102010
06:00+2всв22700 0.0 102011
09:00+8ссз11474 0.0 1018352
12:00+11зюз32435 0.0 10181023
15:00+12зюз43475 0.0 1018941
18:00+10зюз4364100 0.0 1018478
21:00+6ююз118453 0.0 102039
14 апреля, ср
ср1400:00+6ююз227483 0.0 102024
03:00+5ю227952 0.0 102022
06:00+5ю227989 0.0 101924
09:00+8юз34665 0.0 1019288
12:00+12юз555372 0.0 1019740
15:00+12юз5655100 0.0 1018835
18:00+9юз4470100 0.0 1018441
21:00+6ю2274100 0.0 101934
15 апреля, чт
чт1500:00+6ююз225123 0.0 101928
03:00+6ю235118 0.0 101822
06:00+5ююз235216 0.0 101822
09:00+10юз354613 0.0 1018386
12:00+13юз684211 0.0 1017993
15:00+14юз68429 0.0 10171375
18:00+12юз454687 0.0 1016542
21:00+7ююз2267100 0.0 101728
16 апреля, пт
пт1600:00+7ююз1262100 0.0 101716
03:00+7ююв125170 0.0 101511
06:00+6юв224266 0.0 101510
09:00+10зюз22398 0.0 1016257
12:00+14зюз4336100 0.0 1016605
15:00+16зюз44354 0.0 1015766
18:00+14юз4351100 0.0 1016446
21:00+10в1168100 0.0 101713
17 апреля, сб
сб1700:00+11в324728 0.0 101614
03:00+10ю2253100 0.0 101510
06:00+11вюв1154100 0.0 101516
09:00+15ююв2348100 0.1 1016237
12:00+19юз5638100 0.0 1015869
15:00+19юз584089 0.0 1014844
18:00+16ююв4645100 0.0 1015349
21:00+14ююз2344100 0.0 101525